Location: Eaton Estates
(41.3089°N, 82.0057°W)
Time: 07:12:09
(UTC+00:00)

IRS-1C - Pass Details

Date: 17 June 2021
Orbit: 815 x 817 km, 98.9° (Epoch: 27 July)

Event Time Altitude Azimuth Distance (km) Brightness Sun altitude
Rises 08:14:36 0° 17° (NNE) 3,353 8.7 -14.8°
Reaches altitude 10° 08:16:59 10° 20° (NNE) 2,416 7.8 -14.5°
Maximum altitude 08:22:17 64° 102° (ESE) 902 4.5 -13.9°
Enters shadow 08:27:23 11° 183° (S) 2,331 6.0 -13.2°
